Location: Gwatt
(46.7204°N, 7.6223°E)
Time: 11:24:59
(UTC+00:00)

GP-B - Pass Details

Date: 18 September 2020
Orbit: 631 x 635 km, 89.8° (Epoch: 24 October)

Event Time Altitude Azimuth Distance (km) Brightness Sun altitude
Rises 18:18:09 0° 357° (N) 2,944 6.7 -8.2°
Reaches altitude 10° 18:20:25 10° 352° (N) 2,030 6.0 -8.6°
Maximum altitude 18:24:45 53° 277° (W) 783 4.1 -9.4°
Drops below altitude 10° 18:29:03 10° 200° (SSW) 2,011 5.8 -10.1°
Sets 18:31:17 0° 196° (SSW) 2,913 6.6 -10.5°
